TELKOM 4 (MERAH PUTIH) (43587 NORAD) Tracking and Keplerian Element Data

This shows tracking and keplerian element data for the satellite.

Feedback or suggestion? Click here.




ElementValue
Catalog43587
NameTELKOM 4 (MERAH PUTIH)
Epoch Orbit298
Epoch Day144.06452723
Epoch Year2019
RAAN293.1088
Inclination0.0159
Eccentricity0.0001343
Argument of Perigee138.404
Mean Anonmoly301.0696
Mean Motion1.00271411
Decay Rate-3.5E-06
L11 43587U 18064A 19144.06452723 -.00000350 00000-0 00000+0 0 9992
L22 43587 0.0159 293.1088 0001343 138.4040 301.0696 1.00271411 2987

Live tracking and technical data element details for TELKOM 4 (MERAH PUTIH) (NORAD 43587). TELKOM 4 (MERAH PUTIH) can be tracked NOW for your location showing map with azimuth and elevation plus other details from your city location.

Track the satellite on the map from your city or location and see movement details for azimuth, elevation, latitude, longitude, range, height, and movement on the map or in text.







IsCatalogInMostPopularTable: catalog: 43587, numindb: 140
Update: records affected: 1



GetName: 43587 TELKOM 4 (MERAH PUTIH)

Hit Count: updated at: Fri, 24 May 2019 20:47:34 GMT